User: anonymous   Login
Location: *
(51.0333°S, 178.4667°E)
Time: 23:20:31
(UTC+00:00)
Language:

Landsat 4 - Orbit

View from above orbital plane
View from above orbital plane
View from above satellite
View from above satellite

Ground track
Ground track

The orbit data is extracted from the following two-line orbital elements,

1 13367U 82072A   20023.46722058 +.00000424 +00000-0 +25481-4 0  9994
2 13367 098.1928 282.5933 0012284 201.2180 331.7647 15.16959793454359
Epoch (UTC): 23 January 2020 11:12:47
Eccentricity: 0.0012284
inclination: 98.1928°
perigee height: 506 km
apogee height: 523 km
right ascension of ascending node: 282.5933°
argument of perigee: 201.2180°
revolutions per day: 15.16959793
mean anomaly at epoch: 331.7647°
orbit number at epoch: 45435

The dashed part of the orbit path shows where the satellite is in the earth's shadow,  

DLR